Location: Allos
(44.2333°N, 6.6333°E)
Time: 17:53:54
(UTC+00:00)

Cosmos 1812 - Pass Details

Date: 01 December 2020
Orbit: 517 x 520 km, 82.5° (Epoch: 23 January)

Event Time Altitude Azimuth Distance (km) Brightness Sun altitude
Rises 17:30:03 0° 171° (S) 2,625 6.4 -16.4°
Reaches altitude 10° 17:32:14 10° 165° (SSE) 1,743 5.4 -16.7°
Maximum altitude 17:35:52 43° 93° (E) 739 3.0 -17.4°
Enters shadow 17:36:20 41° 72° (ENE) 768 3.0 -17.5°
